Location: Bratislava
(48.1500°N, 17.1170°E)
Time: 16:28:47
(UTC+01:00)

ISS - Pass Details

Date: 25 February 2019
Orbit: 406 x 411 km, 51.6° (Epoch: 18 March)

Event Time Altitude Azimuth Distance (km) Brightness Sun altitude
Exits shadow 04:49:39 - 177° (S) 1,676 -0.8 -19.3°
Reaches altitude 10° 04:50:34 10° 164° (SSE) 1,459 -0.9 -19.2°
Maximum altitude 04:52:09 13° 135° (SE) 1,295 -0.8 -18.9°
Drops below altitude 10° 04:53:44 10° 106° (ESE) 1,465 0.0 -18.7°
Sets 04:56:41 0° 77° (ENE) 2,331 1.7 -18.2°
